Time,TemperatureF,DewpointF,PressureIn,WindDirection,WindDirectionDegrees,WindSpeedMPH,WindSpeedGustMPH,Humidity,HourlyPrecipIn,Conditions,Clouds,dailyrainin,SolarRadiationWatts/m^2,SoftwareType,DateUTC
2013-04-26 00:00:00,37.3,27.7,30.14,NW,309,0.0,0.0,68,0.00,,OVC041,0.03,0.00,VWS V14.01,2013-04-26 04:00:00,
2013-04-26 00:01:00,36.2,27.7,30.15,NW,309,0.0,0.0,71,0.00,,CLR,0.03,0.00,VWS V14.01,2013-04-26 04:01:00,
2013-04-26 00:06:00,36.0,27.9,30.15,NW,309,0.0,0.0,72,0.00,,CLR,0.00,0.00,VWS V14.01,2013-04-26 04:06:00,
2013-04-26 00:11:00,35.9,27.8,30.15,NW,309,0.0,0.0,72,0.00,,CLR,0.00,0.00,VWS V14.01,2013-04-26 04:11:00,
2013-04-26 00:16:00,35.8,28.0,30.15,NW,309,0.0,0.0,73,0.00,,CLR,0.00,0.00,VWS V14.01,2013-04-26 04:16:00,
2013-04-26 00:21:00,35.6,27.8,30.14,NW,309,0.0,0.0,73,0.00,,CLR,0.00,0.00,VWS V14.01,2013-04-26 04:21:00,
2013-04-26 00:26:00,35.5,28.0,30.14,NW,309,0.0,0.0,74,0.00,,CLR,0.00,0.00,VWS V14.01,2013-04-26 04:26:00,
2013-04-26 00:30:00,36.9,27.7,30.15,NW,309,0.0,0.0,69,0.00,,OVC041,0.03,0.00,VWS V14.01,2013-04-26 04:30:00,
2013-04-26 00:31:00,35.3,27.9,30.14,NW,309,0.0,0.0,74,0.00,,CLR,0.00,0.00,VWS V14.01,2013-04-26 04:31:00,
2013-04-26 00:36:00,35.3,27.9,30.15,NW,309,0.0,0.0,74,0.00,,CLR,0.00,0.00,VWS V14.01,2013-04-26 04:36:00,
2013-04-26 00:41:00,35.2,28.1,30.15,NW,309,0.0,0.0,75,0.00,,CLR,0.00,0.00,VWS V14.01,2013-04-26 04:41:00,
2013-04-26 00:46:00,35.2,28.1,30.15,NW,309,0.0,0.0,75,0.00,,CLR,0.00,0.00,VWS V14.01,2013-04-26 04:46:00,
2013-04-26 00:51:00,35.0,27.9,30.16,NW,309,0.0,0.0,75,0.00,,CLR,0.00,0.00,VWS V14.01,2013-04-26 04:51:00,
2013-04-26 00:56:00,35.0,27.9,30.16,NW,309,0.0,0.0,75,0.00,,CLR,0.00,0.00,VWS V14.01,2013-04-26 04:56:00,
2013-04-26 01:00:00,36.0,27.9,30.15,NW,309,0.0,0.0,72,0.00,,OVC041,0.03,0.00,VWS V14.01,2013-04-26 05:00:00,
2013-04-26 01:01:00,34.9,27.8,30.16,NW,309,0.0,0.0,75,0.00,,CLR,0.00,0.00,VWS V14.01,2013-04-26 05:01:00,
2013-04-26 01:06:00,34.9,28.1,30.16,NW,309,0.0,0.0,76,0.00,,CLR,0.00,0.00,VWS V14.01,2013-04-26 05:06:00,
2013-04-26 01:11:00,34.7,27.9,30.16,NW,309,0.0,0.0,76,0.00,,CLR,0.00,0.00,VWS V14.01,2013-04-26 05:11:00,
2013-04-26 01:16:00,34.7,27.9,30.16,NW,309,0.0,0.0,76,0.00,,CLR,0.00,0.00,VWS V14.01,2013-04-26 05:16:00,
2013-04-26 01:21:00,34.6,27.8,30.16,NW,309,0.0,0.0,76,0.00,,CLR,0.00,0.00,VWS V14.01,2013-04-26 05:21:00,
2013-04-26 01:26:00,34.6,27.8,30.16,NW,309,0.0,0.0,76,0.00,,CLR,0.00,0.00,VWS V14.01,2013-04-26 05:26:00,
2013-04-26 01:30:00,35.3,27.9,30.15,NW,309,0.0,0.0,74,0.00,,OVC041,0.00,0.00,VWS V14.01,2013-04-26 05:30:00,
2013-04-26 01:31:00,34.4,28.0,30.16,NW,309,0.0,0.0,77,0.00,,CLR,0.00,0.00,VWS V14.01,2013-04-26 05:31:00,
2013-04-26 01:36:00,34.4,28.0,30.16,NW,309,0.0,0.0,77,0.00,,CLR,0.00,0.00,VWS V14.01,2013-04-26 05:36:00,
2013-04-26 01:41:00,34.3,27.9,30.16,NW,309,0.0,0.0,77,0.00,,CLR,0.00,0.00,VWS V14.01,2013-04-26 05:41:00,
2013-04-26 01:46:00,34.3,27.9,30.16,NW,309,0.0,0.0,77,0.00,,CLR,0.00,0.00,VWS V14.01,2013-04-26 05:46:00,
2013-04-26 01:51:00,34.1,27.7,30.16,NW,309,0.0,0.0,77,0.00,,CLR,0.00,0.00,VWS V14.01,2013-04-26 05:51:00,
2013-04-26 01:56:00,34.1,27.7,30.16,NW,309,0.0,0.0,77,0.00,,CLR,0.00,0.00,VWS V14.01,2013-04-26 05:56:00,
2013-04-26 02:00:00,34.9,28.1,30.16,NW,309,0.0,0.0,76,0.00,,OVC041,0.00,0.00,VWS V14.01,2013-04-26 06:00:00,
2013-04-26 02:01:00,34.0,27.6,30.16,NW,309,0.0,0.0,77,0.00,,CLR,0.00,0.00,VWS V14.01,2013-04-26 06:01:00,
2013-04-26 02:06:00,34.0,27.9,30.16,NW,309,0.0,0.0,78,0.00,,CLR,0.00,0.00,VWS V14.01,2013-04-26 06:06:00,
2013-04-26 02:11:00,33.8,27.7,30.16,NW,309,0.0,0.0,78,0.00,,CLR,0.00,0.00,VWS V14.01,2013-04-26 06:11:00,
2013-04-26 02:16:00,33.8,27.7,30.16,NW,309,0.0,0.0,78,0.00,,CLR,0.00,0.00,VWS V14.01,2013-04-26 06:16:00,
2013-04-26 02:21:00,33.7,27.6,30.16,NW,309,0.0,0.0,78,0.00,,CLR,0.00,0.00,VWS V14.01,2013-04-26 06:21:00,
2013-04-26 02:26:00,33.7,27.6,30.16,NW,309,0.0,0.0,78,0.00,,CLR,0.00,0.00,VWS V14.01,2013-04-26 06:26:00,
2013-04-26 02:30:00,34.4,28.0,30.16,NW,309,0.0,0.0,77,0.00,,OVC041,0.00,0.00,VWS V14.01,2013-04-26 06:30:00,
2013-04-26 02:31:00,33.5,27.4,30.16,NW,309,0.0,0.0,78,0.00,,CLR,0.00,0.00,VWS V14.01,2013-04-26 06:31:00,
2013-04-26 02:36:00,33.5,27.7,30.16,NW,309,0.0,0.0,79,0.00,,CLR,0.00,0.00,VWS V14.01,2013-04-26 06:36:00,
2013-04-26 02:41:00,33.5,27.7,30.16,NW,309,0.0,0.0,79,0.00,,CLR,0.00,0.00,VWS V14.01,2013-04-26 06:41:00,
2013-04-26 02:46:00,33.4,27.6,30.16,NW,309,0.0,0.0,79,0.00,,CLR,0.00,0.00,VWS V14.01,2013-04-26 06:46:00,
2013-04-26 02:51:00,33.4,27.6,30.16,NW,309,0.0,0.0,79,0.00,,CLR,0.00,0.00,VWS V14.01,2013-04-26 06:51:00,
2013-04-26 02:56:00,33.4,27.6,30.16,NW,309,0.0,0.0,79,0.00,,CLR,0.00,0.00,VWS V14.01,2013-04-26 06:56:00,
2013-04-26 03:00:00,34.0,27.6,30.16,NW,309,0.0,0.0,77,0.00,,OVC041,0.00,0.00,VWS V14.01,2013-04-26 07:00:00,
2013-04-26 03:01:00,33.2,27.4,30.16,NW,309,0.0,0.0,79,0.00,,CLR,0.00,0.00,VWS V14.01,2013-04-26 07:01:00,
2013-04-26 03:06:00,33.2,27.4,30.16,NW,309,0.0,0.0,79,0.00,,CLR,0.00,0.00,VWS V14.01,2013-04-26 07:06:00,
2013-04-26 03:11:00,33.1,27.6,30.16,NW,309,0.0,0.0,80,0.00,,CLR,0.00,0.00,VWS V14.01,2013-04-26 07:11:00,
2013-04-26 03:16:00,33.1,27.6,30.16,NW,309,0.0,0.0,80,0.00,,CLR,0.00,0.00,VWS V14.01,2013-04-26 07:16:00,
2013-04-26 03:21:00,32.9,27.4,30.16,NW,309,0.0,0.0,80,0.00,,CLR,0.00,0.00,VWS V14.01,2013-04-26 07:21:00,
2013-04-26 03:26:00,32.9,27.4,30.16,NW,309,0.0,0.0,80,0.00,,CLR,0.00,0.00,VWS V14.01,2013-04-26 07:26:00,
2013-04-26 03:30:00,33.5,27.7,30.16,NW,309,0.0,0.0,79,0.00,,OVC041,0.00,0.00,VWS V14.01,2013-04-26 07:30:00,
2013-04-26 03:31:00,32.9,27.7,30.16,NW,309,0.0,0.0,81,0.00,,CLR,0.00,0.00,VWS V14.01,2013-04-26 07:31:00,
2013-04-26 03:36:00,32.8,27.6,30.16,NW,309,0.0,0.0,81,0.00,,CLR,0.00,0.00,VWS V14.01,2013-04-26 07:36:00,
2013-04-26 03:41:00,32.7,27.5,30.16,NW,309,0.0,0.0,81,0.00,,CLR,0.00,0.00,VWS V14.01,2013-04-26 07:41:00,
2013-04-26 03:46:00,32.7,27.5,30.16,NW,309,0.0,0.0,81,0.00,,CLR,0.00,0.00,VWS V14.01,2013-04-26 07:46:00,
2013-04-26 03:51:00,32.5,27.3,30.16,NW,309,0.0,0.0,81,0.00,,CLR,0.00,0.00,VWS V14.01,2013-04-26 07:51:00,
2013-04-26 03:56:00,32.5,27.6,30.16,NW,309,0.0,0.0,82,0.00,,CLR,0.00,0.00,VWS V14.01,2013-04-26 07:56:00,
2013-04-26 04:00:00,33.2,27.4,30.16,NW,309,0.0,0.0,79,0.00,,OVC041,0.00,0.00,VWS V14.01,2013-04-26 08:00:00,
2013-04-26 04:01:00,32.4,27.5,30.16,NW,309,0.0,0.0,82,0.00,,CLR,0.00,0.00,VWS V14.01,2013-04-26 08:01:00,
2013-04-26 04:06:00,32.4,27.5,30.16,NW,309,0.0,0.0,82,0.00,,CLR,0.00,0.00,VWS V14.01,2013-04-26 08:06:00,
2013-04-26 04:11:00,32.4,27.5,30.16,NW,309,0.0,0.0,82,0.00,,CLR,0.00,0.00,VWS V14.01,2013-04-26 08:11:00,
2013-04-26 04:16:00,32.2,27.3,30.16,NW,309,0.0,0.0,82,0.00,,CLR,0.00,0.00,VWS V14.01,2013-04-26 08:16:00,
2013-04-26 04:21:00,32.2,27.3,30.16,NW,309,0.0,0.0,82,0.00,,CLR,0.00,0.00,VWS V14.01,2013-04-26 08:21:00,
2013-04-26 04:26:00,32.2,27.3,30.16,NW,309,0.0,0.0,82,0.00,,CLR,0.00,0.00,VWS V14.01,2013-04-26 08:26:00,
2013-04-26 04:30:00,32.8,27.6,30.16,NW,309,0.0,0.0,81,0.00,,OVC041,0.00,0.00,VWS V14.01,2013-04-26 08:30:00,
2013-04-26 04:31:00,32.1,27.5,30.16,NW,309,0.0,0.0,83,0.00,,CLR,0.00,0.00,VWS V14.01,2013-04-26 08:31:00,
2013-04-26 04:36:00,32.1,27.5,30.16,NW,309,0.0,0.0,83,0.00,,CLR,0.00,0.00,VWS V14.01,2013-04-26 08:36:00,
2013-04-26 04:41:00,32.1,27.5,30.16,NW,309,0.0,0.0,83,0.00,,CLR,0.00,0.00,VWS V14.01,2013-04-26 08:41:00,
2013-04-26 04:46:00,31.9,27.3,30.16,NW,309,0.0,0.0,83,0.00,,CLR,0.00,0.00,VWS V14.01,2013-04-26 08:46:00,
2013-04-26 04:51:00,31.9,27.6,30.16,NW,309,0.0,0.0,84,0.00,,CLR,0.00,0.00,VWS V14.01,2013-04-26 08:51:00,
2013-04-26 04:56:00,31.8,27.5,30.16,NW,309,0.0,0.0,84,0.00,,CLR,0.00,0.00,VWS V14.01,2013-04-26 08:56:00,
2013-04-26 05:00:00,32.4,27.5,30.16,NW,309,0.0,0.0,82,0.00,,OVC041,0.00,0.00,VWS V14.01,2013-04-26 09:00:00,
2013-04-26 05:01:00,31.8,27.5,30.16,NW,309,0.0,0.0,84,0.00,,CLR,0.00,0.00,VWS V14.01,2013-04-26 09:01:00,
2013-04-26 05:06:00,31.8,27.5,30.17,NW,309,0.0,0.0,84,0.00,,CLR,0.00,0.00,VWS V14.01,2013-04-26 09:06:00,
2013-04-26 05:11:00,31.8,27.5,30.17,NW,309,0.0,0.0,84,0.00,,CLR,0.00,0.00,VWS V14.01,2013-04-26 09:11:00,
2013-04-26 05:16:00,31.8,27.8,30.17,NW,309,0.0,0.0,85,0.00,,CLR,0.00,0.00,VWS V14.01,2013-04-26 09:16:00,
2013-04-26 05:21:00,31.8,27.8,30.17,NW,309,0.0,0.0,85,0.00,,CLR,0.00,0.00,VWS V14.01,2013-04-26 09:21:00,
2013-04-26 05:26:00,31.6,27.6,30.17,NW,309,0.0,0.0,85,0.00,,CLR,0.00,0.00,VWS V14.01,2013-04-26 09:26:00,
2013-04-26 05:30:00,32.1,27.5,30.16,NW,309,0.0,0.0,83,0.00,,OVC041,0.00,0.00,VWS V14.01,2013-04-26 09:30:00,
2013-04-26 05:31:00,31.6,27.6,30.17,NW,309,0.0,0.0,85,0.00,,CLR,0.00,0.00,VWS V14.01,2013-04-26 09:31:00,
2013-04-26 05:36:00,31.5,27.5,30.17,NW,309,0.0,0.0,85,0.00,,CLR,0.00,0.00,VWS V14.01,2013-04-26 09:36:00,
2013-04-26 05:41:00,31.5,27.5,30.17,NW,309,0.0,0.0,85,0.00,,CLR,0.00,0.00,VWS V14.01,2013-04-26 09:41:00,
2013-04-26 05:46:00,31.3,27.3,30.17,NW,309,0.0,0.0,85,0.00,,CLR,0.00,0.00,VWS V14.01,2013-04-26 09:46:00,
2013-04-26 05:51:00,31.2,27.2,30.17,NW,309,0.0,0.0,85,0.00,,CLR,0.00,0.00,VWS V14.01,2013-04-26 09:51:00,
2013-04-26 05:56:00,31.2,27.2,30.17,NW,309,0.0,0.0,85,0.00,,CLR,0.00,0.00,VWS V14.01,2013-04-26 09:56:00,
2013-04-26 06:00:00,31.8,27.5,30.17,NW,309,0.0,0.0,84,0.00,,OVC041,0.00,0.00,VWS V14.01,2013-04-26 10:00:00,
2013-04-26 06:01:00,31.0,27.0,30.17,NW,309,0.0,0.0,85,0.00,,CLR,0.00,0.00,VWS V14.01,2013-04-26 10:01:00,
2013-04-26 06:06:00,31.0,27.3,30.17,NW,309,0.0,0.0,86,0.00,,CLR,0.00,0.00,VWS V14.01,2013-04-26 10:06:00,
2013-04-26 06:11:00,31.0,27.3,30.17,NW,309,0.0,0.0,86,0.00,,CLR,0.00,0.00,VWS V14.01,2013-04-26 10:11:00,
2013-04-26 06:16:00,30.9,27.2,30.17,NW,309,0.0,0.0,86,0.00,,CLR,0.00,0.00,VWS V14.01,2013-04-26 10:16:00,
2013-04-26 06:21:00,30.9,27.2,30.18,NW,309,0.0,0.0,86,0.00,,CLR,0.00,0.00,VWS V14.01,2013-04-26 10:21:00,
2013-04-26 06:26:00,30.9,27.2,30.18,NW,309,0.0,0.0,86,0.00,,CLR,0.00,0.00,VWS V14.01,2013-04-26 10:26:00,
2013-04-26 06:30:00,31.5,27.5,30.17,NW,309,0.0,0.0,85,0.00,,OVC041,0.00,0.00,VWS V14.01,2013-04-26 10:30:00,
2013-04-26 06:31:00,30.7,27.0,30.18,NW,309,0.0,0.0,86,0.00,,CLR,0.00,0.00,VWS V14.01,2013-04-26 10:31:00,
2013-04-26 06:36:00,30.7,27.3,30.18,NW,309,0.0,0.0,87,0.00,,CLR,0.00,0.00,VWS V14.01,2013-04-26 10:36:00,
2013-04-26 06:41:00,30.7,27.3,30.18,NW,309,0.0,0.0,87,0.00,,CLR,0.00,0.00,VWS V14.01,2013-04-26 10:41:00,
2013-04-26 06:45:00,30.7,27.3,30.18,NW,309,0.0,0.0,87,0.00,,CLR,0.00,0.00,VWS V14.01,2013-04-26 10:45:00,
2013-04-26 06:50:00,30.7,27.3,30.18,NW,309,0.0,0.0,87,0.00,,CLR,0.00,0.00,VWS V14.01,2013-04-26 10:50:00,
2013-04-26 06:55:00,30.7,27.3,30.18,NW,309,0.0,0.0,87,0.00,,CLR,0.00,5.00,VWS V14.01,2013-04-26 10:55:00,
2013-04-26 07:00:00,30.7,27.3,30.18,NW,309,0.0,0.0,87,0.00,,CLR,0.00,11.00,VWS V14.01,2013-04-26 11:00:00,
2013-04-26 07:05:00,30.7,27.6,30.18,NW,309,0.0,0.0,88,0.00,,CLR,0.00,14.00,VWS V14.01,2013-04-26 11:05:00,
2013-04-26 07:10:00,30.9,27.8,30.18,NW,309,0.0,0.0,88,0.00,,CLR,0.00,18.00,VWS V14.01,2013-04-26 11:10:00,
2013-04-26 07:15:00,30.9,27.8,30.18,NW,309,0.0,0.0,88,0.00,,CLR,0.00,21.00,VWS V14.01,2013-04-26 11:15:00,
2013-04-26 07:20:00,30.9,27.8,30.18,NW,309,0.0,0.0,88,0.00,,CLR,0.00,23.00,VWS V14.01,2013-04-26 11:20:00,
2013-04-26 07:25:00,31.0,27.9,30.18,NW,309,0.0,0.0,88,0.00,,CLR,0.00,28.00,VWS V14.01,2013-04-26 11:25:00,
2013-04-26 07:30:00,30.7,27.3,30.18,NW,309,0.0,0.0,87,0.00,,OVC041,0.00,0.00,VWS V14.01,2013-04-26 11:30:00,
2013-04-26 07:31:00,31.0,27.9,30.18,NW,309,0.0,0.0,88,0.00,,CLR,0.00,33.00,VWS V14.01,2013-04-26 11:31:00,
2013-04-26 07:35:00,31.2,28.3,30.18,NW,309,0.0,0.0,89,0.00,,CLR,0.00,42.00,VWS V14.01,2013-04-26 11:35:00,
2013-04-26 07:40:00,31.5,28.6,30.18,NW,309,0.0,0.0,89,0.00,,CLR,0.00,49.00,VWS V14.01,2013-04-26 11:40:00,
2013-04-26 07:45:00,31.6,28.7,30.18,NW,309,1.0,0.0,89,0.00,,CLR,0.00,53.00,VWS V14.01,2013-04-26 11:45:00,
2013-04-26 07:50:00,32.1,29.5,30.20,NW,309,0.0,0.0,90,0.00,,CLR,0.00,65.00,VWS V14.01,2013-04-26 11:50:00,
2013-04-26 07:55:00,32.4,29.8,30.20,NW,309,0.0,0.0,90,0.00,,CLR,0.00,53.00,VWS V14.01,2013-04-26 11:55:00,
2013-04-26 08:00:00,32.8,30.2,30.20,NW,309,0.0,0.0,90,0.00,,CLR,0.00,91.00,VWS V14.01,2013-04-26 12:00:00,
2013-04-26 08:05:00,33.2,30.6,30.20,NW,309,0.0,0.0,90,0.00,,CLR,0.00,77.00,VWS V14.01,2013-04-26 12:05:00,
2013-04-26 08:10:00,33.7,31.1,30.20,NW,309,0.0,0.0,90,0.00,,CLR,0.00,125.00,VWS V14.01,2013-04-26 12:10:00,
2013-04-26 08:15:00,34.1,31.5,30.20,NW,309,0.0,0.0,90,0.00,,CLR,0.00,116.00,VWS V14.01,2013-04-26 12:15:00,
2013-04-26 08:20:00,34.7,31.8,30.20,NW,309,0.0,0.0,89,0.00,,CLR,0.00,79.00,VWS V14.01,2013-04-26 12:20:00,
2013-04-26 08:25:00,35.2,32.3,30.20,SSE,161,0.0,0.0,89,0.00,,CLR,0.00,72.00,VWS V14.01,2013-04-26 12:25:00,
2013-04-26 08:30:00,35.8,32.3,30.20,SE,130,0.0,0.0,87,0.00,,CLR,0.00,74.00,VWS V14.01,2013-04-26 12:30:00,
2013-04-26 08:35:00,36.3,32.5,30.20,SE,141,0.0,0.0,86,0.00,,CLR,0.00,83.00,VWS V14.01,2013-04-26 12:35:00,
2013-04-26 08:40:00,36.9,32.8,30.20,SE,145,0.0,0.0,85,0.00,,CLR,0.00,77.00,VWS V14.01,2013-04-26 12:40:00,
2013-04-26 08:45:00,37.3,32.9,30.20,SSE,153,2.0,0.0,84,0.00,,CLR,0.00,76.00,VWS V14.01,2013-04-26 12:45:00,
2013-04-26 08:50:00,37.9,32.9,30.21,SE,146,1.0,0.0,82,0.00,,CLR,0.00,125.00,VWS V14.01,2013-04-26 12:50:00,
2013-04-26 08:55:00,38.8,32.9,30.21,SE,126,0.0,0.0,79,0.00,,CLR,0.00,160.00,VWS V14.01,2013-04-26 12:55:00,
2013-04-26 09:00:00,39.5,32.6,30.21,SE,135,0.0,0.0,76,0.00,,CLR,0.00,146.00,VWS V14.01,2013-04-26 13:00:00,
2013-04-26 09:05:00,40.3,32.3,30.20,SE,138,3.0,0.0,73,0.00,,CLR,0.00,162.00,VWS V14.01,2013-04-26 13:05:00,
2013-04-26 09:10:00,41.2,32.5,30.20,SE,146,1.0,0.0,71,0.00,,CLR,0.00,308.00,VWS V14.01,2013-04-26 13:10:00,
2013-04-26 09:15:00,41.9,32.8,30.20,SSE,150,0.0,0.0,70,0.00,,CLR,0.00,367.00,VWS V14.01,2013-04-26 13:15:00,
2013-04-26 09:20:00,42.8,33.0,30.19,SE,124,3.0,0.0,68,0.00,,CLR,0.00,376.00,VWS V14.01,2013-04-26 13:20:00,
2013-04-26 09:25:00,43.8,32.4,30.19,SSE,167,0.0,0.0,64,0.00,,CLR,0.00,390.00,VWS V14.01,2013-04-26 13:25:00,
2013-04-26 09:30:00,44.6,32.4,30.19,SE,131,0.0,0.0,62,0.00,,CLR,0.00,355.00,VWS V14.01,2013-04-26 13:30:00,
2013-04-26 09:35:00,45.5,31.6,30.19,South,171,0.0,0.0,58,0.00,,CLR,0.00,362.00,VWS V14.01,2013-04-26 13:35:00,
2013-04-26 09:40:00,46.1,32.2,30.19,SSE,157,2.0,0.0,58,0.00,,CLR,0.00,410.00,VWS V14.01,2013-04-26 13:40:00,
2013-04-26 09:45:00,47.0,31.7,30.19,SSE,162,3.0,0.0,55,0.00,,CLR,0.00,408.00,VWS V14.01,2013-04-26 13:45:00,
2013-04-26 09:50:00,47.6,31.8,30.19,ESE,118,3.0,0.0,54,0.00,,CLR,0.00,424.00,VWS V14.01,2013-04-26 13:50:00,
2013-04-26 09:55:00,48.2,31.9,30.19,South,180,0.0,0.0,53,0.00,,CLR,0.00,420.00,VWS V14.01,2013-04-26 13:55:00,
2013-04-26 10:00:00,48.8,32.0,30.19,SSE,166,0.0,0.0,52,0.00,,CLR,0.00,476.00,VWS V14.01,2013-04-26 14:00:00,
2013-04-26 10:05:00,48.8,32.0,30.20,SSE,155,3.0,0.0,52,0.00,,CLR,0.00,517.00,VWS V14.01,2013-04-26 14:05:00,
2013-04-26 10:10:00,49.1,32.2,30.20,SE,146,0.0,0.0,52,0.00,,CLR,0.00,559.00,VWS V14.01,2013-04-26 14:10:00,
2013-04-26 10:15:00,49.9,32.5,30.20,SE,141,0.0,0.0,51,0.00,,CLR,0.00,531.00,VWS V14.01,2013-04-26 14:15:00,
2013-04-26 10:20:00,50.8,32.8,30.20,SSE,163,1.0,0.0,50,0.00,,CLR,0.00,417.00,VWS V14.01,2013-04-26 14:20:00,
2013-04-26 10:25:00,51.0,33.0,30.20,SE,136,3.0,0.0,50,0.00,,CLR,0.00,392.00,VWS V14.01,2013-04-26 14:25:00,
2013-04-26 10:30:00,50.8,32.3,30.20,South,182,2.0,0.0,49,0.00,,CLR,0.00,323.00,VWS V14.01,2013-04-26 14:30:00,
2013-04-26 10:35:00,50.5,31.6,30.19,SE,126,2.0,0.0,48,0.00,,CLR,0.00,411.00,VWS V14.01,2013-04-26 14:35:00,
2013-04-26 10:40:00,50.4,32.0,30.19,SSE,150,1.0,0.0,49,0.00,,CLR,0.00,272.00,VWS V14.01,2013-04-26 14:40:00,
2013-04-26 10:45:00,50.7,33.2,30.19,SSE,155,2.0,0.0,51,0.00,,CLR,0.00,686.00,VWS V14.01,2013-04-26 14:45:00,
2013-04-26 10:50:00,50.7,33.2,30.19,ESE,116,3.0,0.0,51,0.00,,CLR,0.00,619.00,VWS V14.01,2013-04-26 14:50:00,
2013-04-26 10:55:00,51.1,32.6,30.19,SSE,159,1.0,0.0,49,0.00,,CLR,0.00,638.00,VWS V14.01,2013-04-26 14:55:00,
2013-04-26 11:00:00,51.6,32.6,30.19,SSE,154,3.0,0.0,48,0.00,,CLR,0.00,585.00,VWS V14.01,2013-04-26 15:00:00,
2013-04-26 11:05:00,52.2,33.6,30.19,SSE,147,5.0,0.0,49,0.00,,CLR,0.00,773.00,VWS V14.01,2013-04-26 15:05:00,
2013-04-26 11:10:00,52.3,33.2,30.19,SE,140,6.0,0.0,48,0.00,,CLR,0.00,700.00,VWS V14.01,2013-04-26 15:10:00,
2013-04-26 11:15:00,52.6,33.5,30.19,SSW,201,5.0,0.0,48,0.00,,CLR,0.00,724.00,VWS V14.01,2013-04-26 15:15:00,
2013-04-26 11:20:00,52.5,33.4,30.19,ESE,121,3.0,0.0,48,0.00,,CLR,0.00,824.00,VWS V14.01,2013-04-26 15:20:00,
2013-04-26 11:25:00,53.3,33.1,30.19,SSE,153,3.0,0.0,46,0.00,,CLR,0.00,805.00,VWS V14.01,2013-04-26 15:25:00,
2013-04-26 11:30:00,53.5,33.8,30.19,South,169,1.0,0.0,47,0.00,,CLR,0.00,638.00,VWS V14.01,2013-04-26 15:30:00,
2013-04-26 11:35:00,53.2,33.5,30.19,SE,145,3.0,0.0,47,0.00,,CLR,0.00,483.00,VWS V14.01,2013-04-26 15:35:00,
2013-04-26 11:40:00,52.9,33.8,30.19,SSE,157,5.0,0.0,48,0.00,,CLR,0.00,599.00,VWS V14.01,2013-04-26 15:40:00,
2013-04-26 11:45:00,53.6,34.4,30.19,SE,142,5.0,0.0,48,0.00,,CLR,0.00,817.00,VWS V14.01,2013-04-26 15:45:00,
2013-04-26 11:50:00,55.1,35.8,30.18,SE,126,4.0,0.0,48,0.00,,CLR,0.00,784.00,VWS V14.01,2013-04-26 15:50:00,
2013-04-26 11:55:00,54.2,33.9,30.18,SE,146,4.0,0.0,46,0.00,,CLR,0.00,784.00,VWS V14.01,2013-04-26 15:55:00,
2013-04-26 12:00:00,54.4,33.5,30.18,SSW,197,4.0,0.0,45,0.00,,CLR,0.00,772.00,VWS V14.01,2013-04-26 16:00:00,
2013-04-26 12:05:00,54.8,35.0,30.18,South,170,4.0,0.0,47,0.00,,CLR,0.00,838.00,VWS V14.01,2013-04-26 16:05:00,
2013-04-26 12:10:00,55.3,34.3,30.18,South,170,0.0,0.0,45,0.00,,CLR,0.00,552.00,VWS V14.01,2013-04-26 16:10:00,
2013-04-26 12:15:00,55.9,34.9,30.18,ESE,117,4.0,0.0,45,0.00,,CLR,0.00,867.00,VWS V14.01,2013-04-26 16:15:00,
2013-04-26 12:20:00,55.9,33.8,30.19,South,173,3.0,0.0,43,0.00,,CLR,0.00,733.00,VWS V14.01,2013-04-26 16:20:00,
2013-04-26 12:25:00,56.0,35.0,30.19,SE,125,4.0,0.0,45,0.00,,CLR,0.00,765.00,VWS V14.01,2013-04-26 16:25:00,
2013-04-26 12:30:00,57.0,35.3,30.19,West,269,0.0,0.0,44,0.00,,CLR,0.00,865.00,VWS V14.01,2013-04-26 16:30:00,
2013-04-26 12:35:00,56.6,36.1,30.18,South,190,4.0,0.0,46,0.00,,CLR,0.00,831.00,VWS V14.01,2013-04-26 16:35:00,
2013-04-26 12:40:00,56.7,35.0,30.18,South,170,0.0,0.0,44,0.00,,CLR,0.00,874.00,VWS V14.01,2013-04-26 16:40:00,
2013-04-26 12:45:00,56.7,34.5,30.18,SSE,165,2.0,0.0,43,0.00,,CLR,0.00,640.00,VWS V14.01,2013-04-26 16:45:00,
2013-04-26 12:50:00,56.9,35.8,30.18,SSE,165,2.0,0.0,45,0.00,,CLR,0.00,786.00,VWS V14.01,2013-04-26 16:50:00,
2013-04-26 12:55:00,57.0,35.3,30.18,SE,143,2.0,0.0,44,0.00,,CLR,0.00,408.00,VWS V14.01,2013-04-26 16:55:00,
2013-04-26 13:00:00,56.7,35.6,30.18,SE,146,1.0,0.0,45,0.00,,CLR,0.00,907.00,VWS V14.01,2013-04-26 17:00:00,
2013-04-26 13:05:00,57.3,36.7,30.18,SW,224,3.0,0.0,46,0.00,,CLR,0.00,803.00,VWS V14.01,2013-04-26 17:05:00,
2013-04-26 13:10:00,57.3,36.2,30.18,SW,214,4.0,0.0,45,0.00,,CLR,0.00,872.00,VWS V14.01,2013-04-26 17:10:00,
2013-04-26 13:15:00,57.8,36.6,30.18,ESE,110,4.0,0.0,45,0.00,,CLR,0.00,712.00,VWS V14.01,2013-04-26 17:15:00,
2013-04-26 13:20:00,58.1,36.3,30.17,WSW,246,2.0,0.0,44,0.00,,CLR,0.00,939.00,VWS V14.01,2013-04-26 17:20:00,
2013-04-26 13:25:00,58.0,35.7,30.17,SE,145,2.0,0.0,43,0.00,,CLR,0.00,935.00,VWS V14.01,2013-04-26 17:25:00,
2013-04-26 13:30:00,58.9,37.0,30.17,ESE,103,2.0,0.0,44,0.00,,CLR,0.00,926.00,VWS V14.01,2013-04-26 17:30:00,
2013-04-26 13:35:00,58.9,35.9,30.17,South,179,2.0,0.0,42,0.00,,CLR,0.00,867.00,VWS V14.01,2013-04-26 17:35:00,
2013-04-26 13:40:00,59.5,37.6,30.17,SSE,158,3.0,0.0,44,0.00,,CLR,0.00,891.00,VWS V14.01,2013-04-26 17:40:00,
2013-04-26 13:45:00,59.3,38.0,30.17,NNW,343,2.0,0.0,45,0.00,,CLR,0.00,926.00,VWS V14.01,2013-04-26 17:45:00,
2013-04-26 13:50:00,59.3,36.2,30.16,SSE,153,3.0,0.0,42,0.00,,CLR,0.00,851.00,VWS V14.01,2013-04-26 17:50:00,
2013-04-26 13:55:00,59.3,36.2,30.16,SSE,148,3.0,0.0,42,0.00,,CLR,0.00,802.00,VWS V14.01,2013-04-26 17:55:00,
2013-04-26 14:00:00,58.9,35.9,30.16,ESE,113,6.0,0.0,42,0.00,,CLR,0.00,853.00,VWS V14.01,2013-04-26 18:00:00,
2013-04-26 14:05:00,58.4,35.4,30.15,South,181,3.0,0.0,42,0.00,,CLR,0.00,705.00,VWS V14.01,2013-04-26 18:05:00,
2013-04-26 14:10:00,58.9,37.0,30.15,South,170,5.0,0.0,44,0.00,,CLR,0.00,874.00,VWS V14.01,2013-04-26 18:10:00,
2013-04-26 14:15:00,59.9,37.4,30.15,SW,221,1.0,0.0,43,0.00,,CLR,0.00,916.00,VWS V14.01,2013-04-26 18:15:00,
2013-04-26 14:20:00,60.5,37.3,30.15,SW,222,2.0,0.0,42,0.00,,CLR,0.00,816.00,VWS V14.01,2013-04-26 18:20:00,
2013-04-26 14:25:00,59.9,36.2,30.15,SSE,147,3.0,0.0,41,0.00,,CLR,0.00,795.00,VWS V14.01,2013-04-26 18:25:00,
2013-04-26 14:30:00,60.5,36.7,30.15,South,173,4.0,0.0,41,0.00,,CLR,0.00,803.00,VWS V14.01,2013-04-26 18:30:00,
2013-04-26 14:35:00,60.4,36.6,30.14,South,182,0.0,0.0,41,0.00,,CLR,0.00,786.00,VWS V14.01,2013-04-26 18:35:00,
2013-04-26 14:40:00,60.5,36.7,30.14,SE,140,3.0,0.0,41,0.00,,CLR,0.00,838.00,VWS V14.01,2013-04-26 18:40:00,
2013-04-26 14:45:00,60.4,36.0,30.14,South,177,3.0,0.0,40,0.00,,CLR,0.00,759.00,VWS V14.01,2013-04-26 18:45:00,
2013-04-26 14:50:00,60.9,37.7,30.14,SSE,150,2.0,0.0,42,0.00,,CLR,0.00,844.00,VWS V14.01,2013-04-26 18:50:00,
2013-04-26 14:55:00,61.3,38.0,30.14,South,182,3.0,0.0,42,0.00,,CLR,0.00,807.00,VWS V14.01,2013-04-26 18:55:00,
2013-04-26 15:00:00,61.5,37.6,30.14,SSE,161,3.0,0.0,41,0.00,,CLR,0.00,555.00,VWS V14.01,2013-04-26 19:00:00,
2013-04-26 15:05:00,61.0,37.8,30.13,SE,146,2.0,0.0,42,0.00,,CLR,0.00,693.00,VWS V14.01,2013-04-26 19:05:00,
2013-04-26 15:10:00,60.5,37.3,30.13,East,80,1.0,0.0,42,0.00,,CLR,0.00,789.00,VWS V14.01,2013-04-26 19:10:00,
2013-04-26 15:15:00,61.2,39.1,30.13,South,175,2.0,0.0,44,0.00,,CLR,0.00,758.00,VWS V14.01,2013-04-26 19:15:00,
2013-04-26 15:20:00,62.0,38.0,30.12,SSE,167,6.0,0.0,41,0.00,,CLR,0.00,696.00,VWS V14.01,2013-04-26 19:20:00,
2013-04-26 15:25:00,62.3,40.7,30.12,South,184,0.0,0.0,45,0.00,,CLR,0.00,800.00,VWS V14.01,2013-04-26 19:25:00,
2013-04-26 15:30:00,61.8,37.9,30.12,SSE,156,0.0,0.0,41,0.00,,CLR,0.00,846.00,VWS V14.01,2013-04-26 19:30:00,
2013-04-26 15:35:00,61.6,38.3,30.13,South,180,1.0,0.0,42,0.00,,CLR,0.00,823.00,VWS V14.01,2013-04-26 19:35:00,
2013-04-26 15:40:00,62.9,38.9,30.13,SSW,199,0.0,0.0,41,0.00,,CLR,0.00,823.00,VWS V14.01,2013-04-26 19:40:00,
2013-04-26 15:45:00,63.5,39.4,30.13,SE,134,10.0,0.0,41,0.00,,CLR,0.00,788.00,VWS V14.01,2013-04-26 19:45:00,
2013-04-26 15:50:00,62.3,37.0,30.12,South,182,1.0,0.0,39,0.00,,CLR,0.00,758.00,VWS V14.01,2013-04-26 19:50:00,
2013-04-26 15:55:00,61.8,37.2,30.12,South,172,4.0,0.0,40,0.00,,CLR,0.00,714.00,VWS V14.01,2013-04-26 19:55:00,
2013-04-26 16:00:00,62.6,37.3,30.12,South,190,0.0,0.0,39,0.00,,CLR,0.00,768.00,VWS V14.01,2013-04-26 20:00:00,
2013-04-26 16:05:00,62.1,38.8,30.12,SSE,148,4.0,0.0,42,0.00,,CLR,0.00,707.00,VWS V14.01,2013-04-26 20:05:00,
2013-04-26 16:10:00,62.3,37.7,30.12,SSW,196,1.0,0.0,40,0.00,,CLR,0.00,432.00,VWS V14.01,2013-04-26 20:10:00,
2013-04-26 16:15:00,61.8,38.5,30.12,SSE,148,2.0,0.0,42,0.00,,CLR,0.00,427.00,VWS V14.01,2013-04-26 20:15:00,
2013-04-26 16:20:00,61.5,37.6,30.11,SE,138,1.0,0.0,41,0.00,,CLR,0.00,631.00,VWS V14.01,2013-04-26 20:20:00,
2013-04-26 16:25:00,62.0,38.0,30.11,SE,146,2.0,0.0,41,0.00,,CLR,0.00,712.00,VWS V14.01,2013-04-26 20:25:00,
2013-04-26 16:30:00,62.1,37.5,30.11,SW,221,3.0,0.0,40,0.00,,CLR,0.00,691.00,VWS V14.01,2013-04-26 20:30:00,
2013-04-26 16:35:00,62.3,37.7,30.10,South,179,3.0,0.0,40,0.00,,CLR,0.00,490.00,VWS V14.01,2013-04-26 20:35:00,
2013-04-26 16:40:00,62.4,37.1,30.10,SE,130,3.0,0.0,39,0.00,,CLR,0.00,679.00,VWS V14.01,2013-04-26 20:40:00,
2013-04-26 16:45:00,63.1,39.0,30.10,West,268,0.0,0.0,41,0.00,,CLR,0.00,687.00,VWS V14.01,2013-04-26 20:45:00,
2013-04-26 16:50:00,63.1,37.1,30.10,ESE,121,1.0,0.0,38,0.00,,CLR,0.00,708.00,VWS V14.01,2013-04-26 20:50:00,
2013-04-26 16:55:00,63.2,39.1,30.10,SE,126,3.0,0.0,41,0.00,,CLR,0.00,571.00,VWS V14.01,2013-04-26 20:55:00,
2013-04-26 17:00:00,63.1,38.4,30.10,South,178,1.0,0.0,40,0.00,,CLR,0.00,606.00,VWS V14.01,2013-04-26 21:00:00,
2013-04-26 17:05:00,63.2,39.1,30.10,SW,221,1.0,0.0,41,0.00,,CLR,0.00,575.00,VWS V14.01,2013-04-26 21:05:00,
2013-04-26 17:10:00,63.1,38.4,30.10,SSE,147,0.0,0.0,40,0.00,,CLR,0.00,446.00,VWS V14.01,2013-04-26 21:10:00,
2013-04-26 17:15:00,62.9,38.9,30.10,SE,143,3.0,0.0,41,0.00,,CLR,0.00,563.00,VWS V14.01,2013-04-26 21:15:00,
2013-04-26 17:20:00,63.2,39.1,30.09,SW,224,2.0,0.0,41,0.00,,CLR,0.00,563.00,VWS V14.01,2013-04-26 21:20:00,
2013-04-26 17:25:00,63.1,38.4,30.09,SSW,206,1.0,0.0,40,0.00,,CLR,0.00,432.00,VWS V14.01,2013-04-26 21:25:00,
2013-04-26 17:30:00,62.9,38.2,30.09,SE,138,6.0,0.0,40,0.00,,CLR,0.00,545.00,VWS V14.01,2013-04-26 21:30:00,
2013-04-26 17:35:00,62.7,38.0,30.09,SSE,149,3.0,0.0,40,0.00,,CLR,0.00,469.00,VWS V14.01,2013-04-26 21:35:00,
2013-04-26 17:39:00,62.6,38.0,30.09,SE,136,0.0,0.0,40,0.00,,CLR,0.00,353.00,VWS V14.01,2013-04-26 21:39:00,
2013-04-26 17:44:00,62.3,38.9,30.09,SSE,154,0.0,0.0,42,0.00,,CLR,0.00,267.00,VWS V14.01,2013-04-26 21:44:00,
2013-04-26 17:49:00,62.1,38.1,30.09,South,173,2.0,0.0,41,0.00,,CLR,0.00,301.00,VWS V14.01,2013-04-26 21:49:00,
2013-04-26 17:54:00,62.1,38.1,30.09,SE,136,3.0,0.0,41,0.00,,CLR,0.00,260.00,VWS V14.01,2013-04-26 21:54:00,
2013-04-26 17:59:00,62.0,38.7,30.09,SSW,196,0.0,0.0,42,0.00,,CLR,0.00,304.00,VWS V14.01,2013-04-26 21:59:00,
2013-04-26 18:00:00,63.2,37.9,30.10,SE,135,6.0,0.0,39,0.00,,OVC041,0.00,566.00,VWS V14.01,2013-04-26 22:00:00,
2013-04-26 18:04:00,62.3,38.3,30.09,SE,142,4.0,0.0,41,0.00,,CLR,0.00,229.00,VWS V14.01,2013-04-26 22:04:00,
2013-04-26 18:09:00,62.1,38.8,30.09,South,183,4.0,0.0,42,0.00,,CLR,0.00,169.00,VWS V14.01,2013-04-26 22:09:00,
2013-04-26 18:14:00,62.1,38.1,30.09,SE,145,2.0,0.0,41,0.00,,CLR,0.00,251.00,VWS V14.01,2013-04-26 22:14:00,
2013-04-26 18:19:00,62.1,38.1,30.09,SSE,161,1.0,0.0,41,0.00,,CLR,0.00,111.00,VWS V14.01,2013-04-26 22:19:00,
2013-04-26 18:24:00,62.1,38.8,30.09,SE,128,2.0,0.0,42,0.00,,CLR,0.00,102.00,VWS V14.01,2013-04-26 22:24:00,
2013-04-26 18:29:00,62.1,38.8,30.09,SE,136,5.0,0.0,42,0.00,,CLR,0.00,104.00,VWS V14.01,2013-04-26 22:29:00,
2013-04-26 18:30:00,62.7,38.0,30.09,SSE,153,3.0,0.0,40,0.00,,OVC041,0.00,410.00,VWS V14.01,2013-04-26 22:30:00,
2013-04-26 18:34:00,62.0,38.7,30.09,SSE,151,0.0,0.0,42,0.00,,CLR,0.00,230.00,VWS V14.01,2013-04-26 22:34:00,
2013-04-26 18:39:00,62.1,39.4,30.09,ENE,63,1.0,0.0,43,0.00,,CLR,0.00,139.00,VWS V14.01,2013-04-26 22:39:00,
2013-04-26 18:44:00,62.1,40.0,30.09,ENE,60,0.0,0.0,44,0.00,,CLR,0.00,132.00,VWS V14.01,2013-04-26 22:44:00,
2013-04-26 18:49:00,62.1,39.4,30.09,WSW,238,0.0,0.0,43,0.00,,CLR,0.00,90.00,VWS V14.01,2013-04-26 22:49:00,
2013-04-26 18:54:00,61.8,39.1,30.09,SSE,162,1.0,0.0,43,0.00,,CLR,0.00,83.00,VWS V14.01,2013-04-26 22:54:00,
2013-04-26 18:59:00,61.6,38.9,30.09,SE,144,0.0,0.0,43,0.00,,CLR,0.00,93.00,VWS V14.01,2013-04-26 22:59:00,
2013-04-26 19:00:00,62.1,38.1,30.09,SE,135,2.0,0.0,41,0.00,,OVC041,0.00,229.00,VWS V14.01,2013-04-26 23:00:00,
2013-04-26 19:04:00,61.5,39.4,30.09,SE,130,1.0,0.0,44,0.00,,CLR,0.00,105.00,VWS V14.01,2013-04-26 23:04:00,
2013-04-26 19:09:00,61.3,38.6,30.09,SSW,196,0.0,0.0,43,0.00,,CLR,0.00,127.00,VWS V14.01,2013-04-26 23:09:00,
2013-04-26 19:14:00,61.3,38.6,30.09,SW,228,0.0,0.0,43,0.00,,CLR,0.00,116.00,VWS V14.01,2013-04-26 23:14:00,
2013-04-26 19:19:00,61.2,39.1,30.09,South,175,0.0,0.0,44,0.00,,CLR,0.00,58.00,VWS V14.01,2013-04-26 23:19:00,
2013-04-26 19:24:00,61.0,39.5,30.09,ENE,63,1.0,0.0,45,0.00,,CLR,0.00,47.00,VWS V14.01,2013-04-26 23:24:00,
2013-04-26 19:29:00,60.9,39.4,30.09,SSE,155,1.0,0.0,45,0.00,,CLR,0.00,39.00,VWS V14.01,2013-04-26 23:29:00,
2013-04-26 19:30:00,62.0,39.3,30.09,SSW,202,1.0,0.0,43,0.00,,OVC041,0.00,209.00,VWS V14.01,2013-04-26 23:30:00,
2013-04-26 19:34:00,60.7,39.8,30.09,SSW,199,0.0,0.0,46,0.00,,CLR,0.00,35.00,VWS V14.01,2013-04-26 23:34:00,
2013-04-26 19:39:00,60.4,40.1,30.09,SSW,195,0.0,0.0,47,0.00,,CLR,0.00,32.00,VWS V14.01,2013-04-26 23:39:00,
2013-04-26 19:44:00,60.1,39.3,30.09,SSE,153,0.0,0.0,46,0.00,,CLR,0.00,28.00,VWS V14.01,2013-04-26 23:44:00,
2013-04-26 19:49:00,60.1,39.3,30.09,SSE,150,0.0,0.0,46,0.00,,CLR,0.00,26.00,VWS V14.01,2013-04-26 23:49:00,
2013-04-26 19:54:00,59.6,39.9,30.09,SSE,155,2.0,0.0,48,0.00,,CLR,0.00,25.00,VWS V14.01,2013-04-26 23:54:00,
2013-04-26 20:00:00,61.3,39.2,30.09,South,191,1.0,0.0,44,0.00,,OVC041,0.00,83.00,VWS V14.01,2013-04-27 00:00:00,
2013-04-26 20:05:00,59.5,39.3,30.09,SSE,152,0.0,0.0,47,0.00,,CLR,0.00,19.00,VWS V14.01,2013-04-27 00:05:00,
2013-04-26 20:10:00,59.2,39.5,30.09,South,176,1.0,0.0,48,0.00,,CLR,0.00,16.00,VWS V14.01,2013-04-27 00:10:00,
2013-04-26 20:15:00,58.9,39.8,30.09,South,169,0.0,0.0,49,0.00,,CLR,0.00,16.00,VWS V14.01,2013-04-27 00:15:00,
2013-04-26 20:20:00,58.4,39.8,30.09,South,169,0.0,0.0,50,0.00,,CLR,0.00,11.00,VWS V14.01,2013-04-27 00:20:00,
2013-04-26 20:25:00,58.1,39.6,30.09,South,169,0.0,0.0,50,0.00,,CLR,0.00,9.00,VWS V14.01,2013-04-27 00:25:00,
2013-04-26 20:30:00,57.8,39.8,30.09,SSE,165,0.0,0.0,51,0.00,,CLR,0.00,7.00,VWS V14.01,2013-04-27 00:30:00,
2013-04-26 20:35:00,57.6,39.6,30.09,SSE,165,0.0,0.0,51,0.00,,CLR,0.00,0.00,VWS V14.01,2013-04-27 00:35:00,
2013-04-26 20:40:00,57.2,39.8,30.09,SSE,165,0.0,0.0,52,0.00,,CLR,0.00,0.00,VWS V14.01,2013-04-27 00:40:00,
2013-04-26 20:45:00,56.7,39.8,30.09,SSE,165,0.0,0.0,53,0.00,,CLR,0.00,0.00,VWS V14.01,2013-04-27 00:45:00,
2013-04-26 20:50:00,56.3,39.9,30.10,SSE,165,0.0,0.0,54,0.00,,CLR,0.00,0.00,VWS V14.01,2013-04-27 00:50:00,
2013-04-26 20:55:00,56.3,39.9,30.10,SE,137,0.0,0.0,54,0.00,,CLR,0.00,0.00,VWS V14.01,2013-04-27 00:55:00,
2013-04-26 21:00:00,56.3,39.9,30.10,SE,140,1.0,0.0,54,0.00,,CLR,0.00,0.00,VWS V14.01,2013-04-27 01:00:00,
2013-04-26 21:05:00,56.3,39.9,30.10,SE,140,0.0,0.0,54,0.00,,CLR,0.00,0.00,VWS V14.01,2013-04-27 01:05:00,
2013-04-26 21:10:00,56.2,39.8,30.10,SE,140,0.0,0.0,54,0.00,,CLR,0.00,0.00,VWS V14.01,2013-04-27 01:10:00,
2013-04-26 21:15:00,56.2,39.8,30.10,SE,140,0.0,0.0,54,0.00,,CLR,0.00,0.00,VWS V14.01,2013-04-27 01:15:00,
2013-04-26 21:20:00,56.0,40.1,30.10,SE,140,0.0,0.0,55,0.00,,CLR,0.00,0.00,VWS V14.01,2013-04-27 01:20:00,
2013-04-26 21:25:00,55.7,40.3,30.10,SE,140,0.0,0.0,56,0.00,,CLR,0.00,0.00,VWS V14.01,2013-04-27 01:25:00,
2013-04-26 21:30:00,55.6,40.2,30.10,SE,140,0.0,0.0,56,0.00,,CLR,0.00,0.00,VWS V14.01,2013-04-27 01:30:00,
2013-04-26 21:35:00,55.4,40.0,30.10,SE,140,0.0,0.0,56,0.00,,CLR,0.00,0.00,VWS V14.01,2013-04-27 01:35:00,
2013-04-26 21:40:00,55.1,40.2,30.10,SE,140,0.0,0.0,57,0.00,,CLR,0.00,0.00,VWS V14.01,2013-04-27 01:40:00,
2013-04-26 21:45:00,55.0,40.1,30.10,SE,140,0.0,0.0,57,0.00,,CLR,0.00,0.00,VWS V14.01,2013-04-27 01:45:00,
2013-04-26 21:50:00,54.7,40.2,30.10,SE,140,0.0,0.0,58,0.00,,CLR,0.00,0.00,VWS V14.01,2013-04-27 01:50:00,
2013-04-26 21:55:00,54.5,40.0,30.10,SE,140,0.0,0.0,58,0.00,,CLR,0.00,0.00,VWS V14.01,2013-04-27 01:55:00,
2013-04-26 22:00:00,54.2,39.8,30.10,SE,140,0.0,0.0,58,0.00,,CLR,0.00,0.00,VWS V14.01,2013-04-27 02:00:00,
2013-04-26 22:05:00,53.9,39.9,30.11,SE,140,0.0,0.0,59,0.00,,CLR,0.00,0.00,VWS V14.01,2013-04-27 02:05:00,
2013-04-26 22:10:00,53.6,39.6,30.11,SE,140,0.0,0.0,59,0.00,,CLR,0.00,0.00,VWS V14.01,2013-04-27 02:10:00,
2013-04-26 22:15:00,53.3,39.8,30.11,SE,140,0.0,0.0,60,0.00,,CLR,0.00,0.00,VWS V14.01,2013-04-27 02:15:00,
2013-04-26 22:20:00,53.1,40.0,30.10,SE,140,0.0,0.0,61,0.00,,CLR,0.00,0.00,VWS V14.01,2013-04-27 02:20:00,
2013-04-26 22:25:00,52.8,39.7,30.10,SE,140,0.0,0.0,61,0.00,,CLR,0.00,0.00,VWS V14.01,2013-04-27 02:25:00,
2013-04-26 22:30:00,52.5,39.5,30.10,SE,140,0.0,0.0,61,0.00,,CLR,0.00,0.00,VWS V14.01,2013-04-27 02:30:00,
2013-04-26 22:35:00,52.2,39.6,30.11,SE,140,0.0,0.0,62,0.00,,CLR,0.00,0.00,VWS V14.01,2013-04-27 02:35:00,
2013-04-26 22:40:00,51.9,39.7,30.11,SE,140,0.0,0.0,63,0.00,,CLR,0.00,0.00,VWS V14.01,2013-04-27 02:40:00,
2013-04-26 22:45:00,51.6,39.8,30.11,SE,140,0.0,0.0,64,0.00,,CLR,0.00,0.00,VWS V14.01,2013-04-27 02:45:00,
2013-04-26 22:50:00,51.3,39.5,30.10,SE,140,0.0,0.0,64,0.00,,CLR,0.00,0.00,VWS V14.01,2013-04-27 02:50:00,
2013-04-26 22:55:00,51.0,39.3,30.10,SE,140,0.0,0.0,64,0.00,,CLR,0.00,0.00,VWS V14.01,2013-04-27 02:55:00,
2013-04-26 23:00:00,50.8,39.5,30.10,SE,140,0.0,0.0,65,0.00,,CLR,0.00,0.00,VWS V14.01,2013-04-27 03:00:00,
2013-04-26 23:05:00,50.5,39.2,30.10,SE,140,0.0,0.0,65,0.00,,CLR,0.00,0.00,VWS V14.01,2013-04-27 03:05:00,
2013-04-26 23:10:00,50.4,39.5,30.10,SE,140,0.0,0.0,66,0.00,,CLR,0.00,0.00,VWS V14.01,2013-04-27 03:10:00,
2013-04-26 23:15:00,50.2,39.3,30.10,SE,140,0.0,0.0,66,0.00,,CLR,0.00,0.00,VWS V14.01,2013-04-27 03:15:00,
2013-04-26 23:20:00,49.9,39.0,30.10,SE,140,0.0,0.0,66,0.00,,CLR,0.00,0.00,VWS V14.01,2013-04-27 03:20:00,
2013-04-26 23:25:00,49.8,38.9,30.10,SE,140,0.0,0.0,66,0.00,,CLR,0.00,0.00,VWS V14.01,2013-04-27 03:25:00,
2013-04-26 23:30:00,49.6,38.7,30.10,SE,140,0.0,0.0,66,0.00,,CLR,0.00,0.00,VWS V14.01,2013-04-27 03:30:00,
2013-04-26 23:35:00,49.4,38.9,30.10,SE,140,0.0,0.0,67,0.00,,CLR,0.00,0.00,VWS V14.01,2013-04-27 03:35:00,
2013-04-26 23:40:00,49.2,38.7,30.10,SE,140,0.0,0.0,67,0.00,,CLR,0.00,0.00,VWS V14.01,2013-04-27 03:40:00,
2013-04-26 23:45:00,48.9,38.4,30.10,SE,140,0.0,0.0,67,0.00,,CLR,0.00,0.00,VWS V14.01,2013-04-27 03:45:00,
2013-04-26 23:50:00,48.8,38.7,30.10,SE,140,0.0,0.0,68,0.00,,CLR,0.00,0.00,VWS V14.01,2013-04-27 03:50:00,
2013-04-26 23:55:00,48.5,38.4,30.10,SE,140,0.0,0.0,68,0.00,,CLR,0.00,0.00,VWS V14.01,2013-04-27 03:55:00,